Location: Mainz-Finthen
(49.9906°N, 8.1713°E)
Time: 06:38:50
(UTC+00:00)

ISS - Visible Passes

Search period start: 27 February 2024 00:00
Search period end: 08 March 2024 00:00
Orbit: 414 x 422 km, 51.6° (Epoch: 26 February)

Date Brightness Start Highest point End Pass type
(mag) Time Alt. Az. Time Alt. Az. Time Alt. Az.
27 Feb -1.6 03:34:09 27° ENE 03:34:09 27° ENE 03:35:50 10° ENE visible
27 Feb -3.6 05:07:05 19° WNW 05:09:23 66° N 05:12:46 10° E visible
28 Feb -3.6 04:21:03 56° NW 04:21:29 63° N 04:24:52 10° E visible
29 Feb -1.8 03:34:59 30° ENE 03:34:59 30° ENE 03:36:54 10° ENE visible
29 Feb -3.7 05:07:55 17° WNW 05:10:28 86° NNE 05:13:52 10° ESE visible
01 Mar -0.2 02:48:54 10° ENE 02:48:54 10° ENE 02:48:56 10° ENE visible
01 Mar -3.7 04:21:49 52° NW 04:22:30 73° N 04:25:53 10° E visible
02 Mar -2.1 03:35:43 35° ENE 03:35:43 35° ENE 03:37:50 10° E visible
02 Mar -3.5 05:08:39 15° W 05:11:16 57° SSW 05:14:35 10° SE visible
03 Mar -0.3 02:49:37 11° E 02:49:37 11° E 02:49:45 10° E visible
03 Mar -3.9 04:22:33 52° W 04:23:16 77° SSW 04:26:39 10° ESE visible
04 Mar -2.3 03:36:28 35° ESE 03:36:28 35° ESE 03:38:34 10° ESE visible
04 Mar -2.6 05:09:24 14° W 05:11:44 29° SW 05:14:41 10° SSE visible
05 Mar -3.3 04:23:22 40° SW 04:23:43 41° SSW 04:26:55 10° SE visible
06 Mar -1.8 03:37:24 24° SE 03:37:24 24° SE 03:38:55 10° SE visible
06 Mar -1.7 05:10:20 11° WSW 05:11:50 14° SW 05:13:40 10° S visible
07 Mar -2.1 04:24:27 20° SSW 04:24:27 20° SSW 04:26:24 10° SSE visible
